Terug naar catalogus

STARLINK-3795

ActiefCommunicatieVLEO
NORAD 52264·PAYLOAD·🇺🇸 United States

Gelanceerd Apr 21, 2022 vanaf Cape Canaveral Space Force Station

Loading…

Volgende Passages (komende 24 uur)

TLE

VersSource: CelesTrak SupGP

Epoch: Sep 15, 2026, 02:01 UTC

1 52264C 22041D   26258.08451389  .00044665  00000+0  13198-2 0  2585
2 52264  53.1587 323.2871 0001153  93.1762  10.3263 15.34365561    19

Volg STARLINK-3795 in realtime met AllMySat

Download on the App Store